QPF
0.00 0.00 0.00 0.00 0.00 0.00 0.00 0.01 0.01 0.01 0.01 0.01 0.01 0.00 0.00 0.00 0.00 0.00 0.00 0.00 0.00 0.00 0.00 0.00 0.00 0.00 0.01 0.01 0.01 0.03 0.04 0.04 0.04 0.03 0.02 0.01 0.01 0.03 0.06 0.04 0.04 0.05 0.06 0.08
0.00 0.00 0.00 0.00 0.00 0.00 0.00 0.00 0.01 0.02 0.02 0.01 0.01 0.00 0.00 0.00 0.00 0.01 0.01 0.00 0.00 0.00 0.00 0.01 0.01 0.00 0.00 0.01 0.01 0.01 0.02 0.02 0.03 0.03 0.02 0.02 0.02 0.02 0.04 0.05 0.05 0.05 0.04 0.06
0.00 0.00 0.00 0.01 0.01 0.01 0.00 0.00 0.01 0.04 0.04 0.01 0.00 0.00 0.00 0.01 0.01 0.02 0.01 0.00 0.00 0.00 0.00 0.01 0.01 0.01 0.00 0.01 0.01 0.01 0.02 0.02 0.03 0.02 0.02 0.02 0.03 0.03 0.03 0.04 0.06 0.07 0.05 0.04
0.01 0.01 0.02 0.01 0.01 0.00 0.00 0.01 0.01 0.02 0.02 0.00 0.00 0.00 0.00 0.00 0.00 0.01 0.01 0.01 0.01 0.00 0.01 0.01 0.02 0.01 0.01 0.01 0.01 0.01 0.02 0.02 0.02 0.02 0.03 0.03 0.03 0.03 0.04 0.04 0.07 0.09 0.07 0.06
0.02 0.02 0.02 0.01 0.00 0.01 0.03 0.04 0.01 0.01 0.01 0.00 0.00 0.00 0.00 0.00 0.01 0.01 0.01 0.01 0.01 0.00 0.00 0.01 0.01 0.02 0.02 0.02 0.02 0.02 0.02 0.03 0.03 0.02 0.03 0.03 0.03 0.03 0.03 0.04 0.04 0.05 0.06 0.06
0.02 0.02 0.03 0.02 0.00 0.00 0.03 0.07 0.02 0.01 0.01 0.00 0.00 0.01 0.01 0.00 0.01 0.01 0.01 0.01 0.01 0.01 0.01 0.02 0.02 0.02 0.02 0.02 0.02 0.02 0.02 0.03 0.03 0.04 0.03 0.03 0.03 0.03 0.04 0.04 0.03 0.02 0.03 0.04
0.02 0.03 0.04 0.01 0.00 0.01 0.06 0.06 0.01 0.01 0.01 0.00 0.01 0.01 0.00 0.00 0.01 0.01 0.00 0.00 0.01 0.01 0.02 0.04 0.04 0.02 0.02 0.02 0.03 0.03 0.03 0.03 0.03 0.03 0.03 0.03 0.04 0.04 0.03 0.03 0.04 0.03 0.02 0.02
0.03 0.04 0.05 0.01 0.01 0.02 0.04 0.02 0.01 0.01 0.01 0.01 0.01 0.00 0.01 0.01 0.01 0.01 0.00 0.01 0.02 0.02 0.04 0.05 0.04 0.03 0.03 0.03 0.03 0.03 0.03 0.03 0.03 0.03 0.03 0.04 0.05 0.04 0.03 0.03 0.04 0.04 0.03 0.02
0.04 0.05 0.04 0.02 0.01 0.01 0.01 0.01 0.01 0.01 0.01 0.00 0.01 0.01 0.01 0.01 0.01 0.01 0.01 0.02 0.02 0.03 0.05 0.04 0.04 0.04 0.04 0.04 0.03 0.03 0.03 0.03 0.03 0.03 0.04 0.06 0.06 0.06 0.04 0.04 0.03 0.03 0.03 0.03
0.02 0.03 0.03 0.03 0.02 0.01 0.01 0.01 0.01 0.00 0.00 0.00 0.01 0.01 0.01 0.01 0.01 0.01 0.01 0.01 0.02 0.02 0.03 0.04 0.04 0.03 0.03 0.03 0.03 0.04 0.04 0.04 0.03 0.03 0.04 0.06 0.05 0.05 0.04 0.03 0.03 0.02 0.02 0.02
0.02 0.03 0.03 0.03 0.02 0.01 0.01 0.00 0.00 0.00 0.00 0.01 0.01 0.01 0.01 0.01 0.01 0.01 0.01 0.02 0.02 0.02 0.03 0.03 0.03 0.02 0.02 0.03 0.04 0.04 0.05 0.04 0.04 0.04 0.04 0.04 0.03 0.03 0.02 0.01 0.01 0.02 0.03 0.02
0.02 0.02 0.02 0.03 0.02 0.01 0.00 0.00 0.00 0.01 0.01 0.02 0.01 0.01 0.00 0.00 0.01 0.01 0.01 0.01 0.02 0.02 0.02 0.02 0.03 0.03 0.02 0.03 0.04 0.05 0.05 0.04 0.04 0.03 0.02 0.02 0.02 0.01 0.01 0.01 0.01 0.01 0.01 0.01
0.01 0.01 0.01 0.01 0.01 0.01 0.00 0.00 0.01 0.01 0.01 0.02 0.02 0.01 0.00 0.00 0.00 0.01 0.01 0.02 0.02 0.02 0.02 0.03 0.03 0.04 0.03 0.03 0.04 0.04 0.04 0.04 0.03 0.03 0.03 0.02 0.01 0.01 0.01 0.01 0.00 0.00 0.01 0.01
0.00 0.00 0.01 0.01 0.01 0.01 0.00 0.01 0.01 0.01 0.01 0.01 0.01 0.00 0.00 0.00 0.00 0.01 0.02 0.02 0.02 0.02 0.03 0.03 0.03 0.03 0.03 0.02 0.03 0.03 0.02 0.01 0.01 0.02 0.01 0.01 0.01 0.01 0.00 0.01 0.01 0.00 0.00 0.00
0.01 0.01 0.01 0.01 0.01 0.00 0.01 0.01 0.01 0.01 0.00 0.00 0.00 0.00 0.00 0.00 0.00 0.01 0.01 0.01 0.01 0.02 0.02 0.02 0.03 0.03 0.02 0.01 0.02 0.02 0.01 0.01 0.01 0.01 0.01 0.00 0.00 0.00 0.00 0.00 0.00 0.01 0.00 0.00
0.01 0.01 0.00 0.00 0.01 0.01 0.01 0.01 0.01 0.00 0.00 0.00 0.01 0.00 0.00 0.00 0.01 0.01 0.01 0.01 0.01 0.02 0.02 0.02 0.03 0.02 0.01 0.01 0.01 0.01 0.01 0.00 0.01 0.01 0.00 0.00 0.00 0.00 0.00 0.00 0.00 0.00 0.00 0.00
0.00 0.00 0.00 0.00 0.01 0.01 0.01 0.01 0.01 0.00 0.00 0.00 0.00 0.00 0.00 0.00 0.01 0.01 0.01 0.02 0.02 0.03 0.03 0.03 0.02 0.01 0.00 0.00 0.00 0.00 0.00 0.00 0.00 0.00 0.00 0.00 0.00 0.00 0.00 0.00 0.00 0.00 0.00 0.00
0.00 0.00 0.00 0.00 0.01 0.01 0.01 0.01 0.01 0.00 0.00 0.00 0.00 0.00 0.01 0.01 0.01 0.01 0.01 0.01 0.02 0.02 0.02 0.01 0.01 0.00 0.00 0.00 0.00 0.00 0.00 0.00 0.00 0.00 0.00 0.00 0.00 0.00 0.00 0.00 0.00 0.00 0.00 0.00
0.00 0.00 0.00 0.00 0.00 0.00 0.00 0.00 0.00 0.00 0.00 0.00 0.00 0.01 0.01 0.01 0.01 0.01 0.01 0.01 0.01 0.02 0.02 0.01 0.00 0.00 0.00 0.00 0.00 0.00 0.00 0.00 0.00 0.00 0.00 0.00 0.00 0.00 0.00 0.00 0.00 0.00 0.00 0.00
0.00 0.00 0.00 0.00 0.00 0.00 0.00 0.00 0.00 0.00 0.00 0.00 0.01 0.01 0.01 0.01 0.01 0.00 0.01 0.01 0.01 0.01 0.01 0.00 0.00 0.01 0.01 0.00 0.00 0.00 0.00 0.00 0.00 0.00 0.00 0.00 0.00 0.00 0.00 0.00 0.00 0.00 0.00 0.00
0.00 0.00 0.00 0.00 0.00 0.00 0.00 0.00 0.00 0.00 0.01 0.01 0.00 0.01 0.01 0.00 0.00 0.00 0.01 0.01 0.01 0.01 0.00 0.00 0.01 0.00 0.00 0.00 0.00 0.00 0.00 0.00 0.00 0.00 0.00 0.00 0.00 0.00 0.00 0.00 0.00 0.00 0.00 0.00
0.00 0.00 0.00 0.00 0.00 0.00 0.00 0.00 0.00 0.00 0.00 0.00 0.00 0.00 0.00 0.00 0.00 0.00 0.01 0.01 0.01 0.00 0.00 0.00 0.00 0.00 0.00 0.00 0.00 0.00 0.00 0.00 0.00 0.00 0.00 0.00 0.00 0.00 0.00 0.00 0.00 0.00 0.00 0.00
0.00 0.00 0.00 0.00 0.00 0.00 0.00 0.00 0.00 0.00 0.00 0.00 0.00 0.00 0.00 0.00 0.00 0.00 0.01 0.00 0.00 0.00 0.00 0.00 0.00 0.00 0.00 0.00 0.00 0.00 0.00 0.00 0.00 0.00 0.00 0.00 0.00 0.00 0.00 0.00 0.00 0.00 0.00 0.00
0.00 0.00 0.00 0.00 0.00 0.00 0.00 0.00 0.00 0.00 0.00 0.00 0.00 0.00 0.00 0.00 0.00 0.00 0.00 0.00 0.00 0.00 0.00 0.00 0.00 0.00 0.00 0.00 0.00 0.00 0.00 0.00 0.00 0.00 0.00 0.00 0.00 0.00 0.00 0.00 0.00 0.00 0.00 0.00
0.00 0.01 0.00 0.00 0.00 0.00 0.00 0.00 0.00 0.00 0.00 0.00 0.00 0.00 0.00 0.00 0.00 0.00 0.00 0.00 0.00 0.00 0.00 0.00 0.00 0.00 0.00 0.00 0.00 0.00 0.00 0.00 0.00 0.00 0.00 0.00 0.00 0.00 0.00 0.00 0.00 0.00 0.00 0.00
0.00 0.00 0.01 0.01 0.00 0.00 0.00 0.00 0.00 0.00 0.00 0.00 0.00 0.00 0.00 0.00 0.00 0.00 0.00 0.00 0.00 0.00 0.00 0.00 0.00 0.00 0.00 0.00 0.00 0.00 0.00 0.00 0.00 0.00 0.00 0.00 0.00 0.00 0.00 0.00 0.00 0.00 0.00 0.00
0.00 0.00 0.00 0.01 0.00 0.00 0.00 0.00 0.00 0.00 0.00 0.00 0.00 0.00 0.00 0.00 0.00 0.00 0.00 0.00 0.00 0.00 0.00 0.00 0.00 0.00 0.00 0.00 0.00 0.00 0.00 0.00 0.00 0.00 0.00 0.00 0.00 0.00 0.00 0.00 0.00 0.00 0.00 0.00
MSLP
1013.88 1013.45 1013.04 1012.64 1012.27 1011.93 1011.63 1011.38 1011.22 1011.17 1011.28 1011.57 1012.08 1012.81 1013.75 1014.84 1016.02 1017.22 1018.36 1019.36 1020.16 1020.75 1021.13 1021.33 1021.39 1021.39 1021.39 1021.42 1021.53 1021.71 1021.94 1022.20 1022.44 1022.62 1022.71 1022.68 1022.53 1022.29 1021.97 1021.60 1021.22 1020.87 1020.56 1020.31
1013.86 1013.38 1012.89 1012.40 1011.94 1011.52 1011.17 1010.91 1010.78 1010.80 1011.00 1011.41 1012.05 1012.89 1013.90 1015.03 1016.23 1017.41 1018.50 1019.45 1020.21 1020.77 1021.15 1021.36 1021.46 1021.51 1021.55 1021.63 1021.76 1021.95 1022.19 1022.44 1022.68 1022.86 1022.97 1022.99 1022.91 1022.76 1022.54 1022.29 1022.02 1021.75 1021.51 1021.29
1013.78 1013.29 1012.77 1012.24 1011.74 1011.29 1010.92 1010.67 1010.58 1010.67 1010.96 1011.47 1012.19 1013.10 1014.16 1015.31 1016.49 1017.63 1018.67 1019.56 1020.26 1020.79 1021.14 1021.36 1021.49 1021.57 1021.65 1021.75 1021.89 1022.08 1022.30 1022.53 1022.74 1022.92 1023.04 1023.10 1023.10 1023.05 1022.95 1022.82 1022.67 1022.51 1022.34 1022.18
1013.70 1013.24 1012.74 1012.22 1011.72 1011.27 1010.91 1010.69 1010.64 1010.79 1011.15 1011.73 1012.52 1013.47 1014.55 1015.69 1016.83 1017.91 1018.87 1019.69 1020.33 1020.81 1021.14 1021.36 1021.50 1021.59 1021.68 1021.79 1021.92 1022.09 1022.27 1022.46 1022.65 1022.81 1022.94 1023.05 1023.12 1023.16 1023.18 1023.18 1023.15 1023.10 1023.02 1022.92
1013.67 1013.26 1012.81 1012.32 1011.85 1011.42 1011.10 1010.91 1010.91 1011.10 1011.52 1012.15 1012.97 1013.94 1015.01 1016.12 1017.21 1018.21 1019.11 1019.85 1020.43 1020.86 1021.16 1021.36 1021.49 1021.59 1021.68 1021.78 1021.89 1022.02 1022.17 1022.32 1022.47 1022.62 1022.76 1022.90 1023.03 1023.16 1023.28 1023.40 1023.48 1023.54 1023.54 1023.50
1013.72 1013.37 1012.97 1012.53 1012.09 1011.70 1011.41 1011.25 1011.28 1011.52 1011.97 1012.62 1013.46 1014.43 1015.48 1016.55 1017.58 1018.52 1019.34 1020.02 1020.54 1020.92 1021.20 1021.38 1021.51 1021.60 1021.68 1021.76 1021.85 1021.95 1022.06 1022.17 1022.30 1022.43 1022.58 1022.74 1022.93 1023.13 1023.34 1023.54 1023.73 1023.87 1023.95 1023.97
1013.87 1013.56 1013.20 1012.79 1012.39 1012.02 1011.75 1011.62 1011.67 1011.93 1012.40 1013.06 1013.90 1014.86 1015.88 1016.91 1017.89 1018.78 1019.55 1020.17 1020.65 1021.00 1021.25 1021.42 1021.54 1021.63 1021.70 1021.77 1021.85 1021.93 1022.01 1022.10 1022.21 1022.33 1022.48 1022.67 1022.90 1023.15 1023.42 1023.70 1023.95 1024.16 1024.30 1024.36
1014.11 1013.82 1013.47 1013.08 1012.68 1012.33 1012.08 1011.96 1012.02 1012.28 1012.75 1013.41 1014.24 1015.18 1016.18 1017.17 1018.12 1018.97 1019.69 1020.28 1020.73 1021.06 1021.30 1021.47 1021.59 1021.69 1021.77 1021.84 1021.91 1021.99 1022.06 1022.15 1022.25 1022.37 1022.53 1022.74 1022.99 1023.28 1023.59 1023.90 1024.20 1024.45 1024.63 1024.73
1014.40 1014.10 1013.74 1013.35 1012.96 1012.61 1012.35 1012.23 1012.28 1012.54 1013.00 1013.65 1014.46 1015.38 1016.35 1017.32 1018.24 1019.06 1019.76 1020.33 1020.77 1021.10 1021.35 1021.53 1021.66 1021.77 1021.87 1021.96 1022.04 1022.13 1022.21 1022.31 1022.42 1022.55 1022.73 1022.95 1023.21 1023.52 1023.84 1024.18 1024.49 1024.77 1024.97 1025.11
1014.70 1014.37 1014.00 1013.60 1013.20 1012.84 1012.57 1012.45 1012.50 1012.74 1013.19 1013.82 1014.61 1015.50 1016.44 1017.38 1018.27 1019.07 1019.76 1020.33 1020.77 1021.11 1021.37 1021.57 1021.73 1021.87 1021.99 1022.11 1022.22 1022.33 1022.44 1022.55 1022.68 1022.84 1023.03 1023.26 1023.53 1023.84 1024.17 1024.50 1024.82 1025.10 1025.32 1025.47
1014.97 1014.62 1014.23 1013.81 1013.41 1013.05 1012.78 1012.66 1012.70 1012.93 1013.36 1013.97 1014.73 1015.59 1016.50 1017.41 1018.27 1019.05 1019.73 1020.29 1020.75 1021.10 1021.38 1021.61 1021.80 1021.97 1022.12 1022.27 1022.41 1022.55 1022.69 1022.83 1022.99 1023.16 1023.36 1023.60 1023.87 1024.17 1024.49 1024.82 1025.13 1025.41 1025.63 1025.78
1015.17 1014.80 1014.40 1013.99 1013.60 1013.25 1013.01 1012.89 1012.95 1013.18 1013.59 1014.18 1014.90 1015.72 1016.59 1017.46 1018.29 1019.05 1019.71 1020.27 1020.72 1021.09 1021.39 1021.65 1021.87 1022.06 1022.25 1022.43 1022.60 1022.77 1022.93 1023.09 1023.26 1023.45 1023.66 1023.89 1024.16 1024.45 1024.76 1025.08 1025.37 1025.64 1025.86 1026.02
1015.26 1014.90 1014.51 1014.13 1013.77 1013.47 1013.26 1013.18 1013.25 1013.50 1013.91 1014.47 1015.16 1015.94 1016.76 1017.58 1018.37 1019.09 1019.72 1020.27 1020.73 1021.11 1021.43 1021.70 1021.94 1022.17 1022.38 1022.58 1022.77 1022.95 1023.13 1023.30 1023.48 1023.67 1023.87 1024.10 1024.36 1024.64 1024.93 1025.23 1025.51 1025.77 1025.99 1026.15
1015.23 1014.89 1014.54 1014.21 1013.91 1013.67 1013.53 1013.50 1013.62 1013.89 1014.30 1014.85 1015.51 1016.24 1017.01 1017.78 1018.51 1019.19 1019.80 1020.33 1020.78 1021.16 1021.49 1021.79 1022.05 1022.29 1022.52 1022.73 1022.93 1023.12 1023.29 1023.46 1023.63 1023.81 1024.00 1024.21 1024.45 1024.71 1024.99 1025.27 1025.55 1025.80 1026.01 1026.17
1015.06 1014.75 1014.46 1014.20 1013.98 1013.83 1013.77 1013.82 1014.00 1014.30 1014.73 1015.28 1015.91 1016.60 1017.31 1018.03 1018.71 1019.35 1019.92 1020.43 1020.87 1021.26 1021.61 1021.92 1022.19 1022.45 1022.68 1022.90 1023.10 1023.28 1023.44 1023.59 1023.74 1023.89 1024.06 1024.25 1024.46 1024.70 1024.96 1025.23 1025.49 1025.74 1025.94 1026.10
1014.75 1014.49 1014.26 1014.08 1013.96 1013.91 1013.95 1014.09 1014.33 1014.69 1015.14 1015.69 1016.30 1016.95 1017.62 1018.28 1018.92 1019.52 1020.06 1020.56 1021.00 1021.40 1021.75 1022.08 1022.37 1022.64 1022.89 1023.10 1023.28 1023.45 1023.59 1023.71 1023.83 1023.95 1024.09 1024.25 1024.44 1024.65 1024.89 1025.14 1025.40 1025.63 1025.83 1025.99
1014.32 1014.11 1013.95 1013.85 1013.83 1013.88 1014.02 1014.25 1014.58 1014.99 1015.48 1016.03 1016.63 1017.25 1017.89 1018.51 1019.11 1019.67 1020.20 1020.68 1021.13 1021.54 1021.91 1022.26 1022.58 1022.86 1023.11 1023.32 1023.50 1023.64 1023.75 1023.84 1023.93 1024.01 1024.12 1024.24 1024.41 1024.60 1024.81 1025.05 1025.29 1025.52 1025.71 1025.86
1013.81 1013.65 1013.55 1013.54 1013.60 1013.76 1013.99 1014.31 1014.71 1015.18 1015.70 1016.27 1016.86 1017.47 1018.07 1018.66 1019.23 1019.77 1020.29 1020.77 1021.23 1021.65 1022.06 1022.43 1022.77 1023.07 1023.33 1023.54 1023.70 1023.83 1023.92 1023.98 1024.03 1024.08 1024.15 1024.25 1024.38 1024.55 1024.75 1024.96 1025.19 1025.40 1025.59 1025.73
1013.28 1013.15 1013.12 1013.17 1013.32 1013.56 1013.88 1014.28 1014.75 1015.27 1015.82 1016.41 1017.00 1017.59 1018.17 1018.74 1019.29 1019.81 1020.32 1020.81 1021.28 1021.72 1022.15 1022.55 1022.91 1023.23 1023.50 1023.72 1023.88 1023.99 1024.05 1024.09 1024.11 1024.13 1024.17 1024.24 1024.35 1024.49 1024.67 1024.87 1025.08 1025.28 1025.45 1025.59
1012.78 1012.70 1012.71 1012.83 1013.04 1013.36 1013.75 1014.21 1014.73 1015.29 1015.87 1016.47 1017.06 1017.64 1018.21 1018.76 1019.28 1019.80 1020.30 1020.79 1021.26 1021.73 1022.17 1022.60 1022.98 1023.31 1023.60 1023.81 1023.97 1024.07 1024.12 1024.14 1024.14 1024.14 1024.15 1024.20 1024.28 1024.40 1024.56 1024.74 1024.93 1025.12 1025.28 1025.40
1012.37 1012.33 1012.39 1012.56 1012.83 1013.19 1013.64 1014.14 1014.70 1015.29 1015.89 1016.50 1017.09 1017.66 1018.21 1018.73 1019.24 1019.74 1020.23 1020.72 1021.20 1021.67 1022.12 1022.56 1022.95 1023.30 1023.58 1023.80 1023.96 1024.05 1024.09 1024.09 1024.07 1024.05 1024.04 1024.06 1024.13 1024.23 1024.37 1024.53 1024.71 1024.88 1025.03 1025.14
1012.11 1012.10 1012.19 1012.40 1012.70 1013.10 1013.58 1014.11 1014.69 1015.30 1015.91 1016.51 1017.10 1017.65 1018.19 1018.69 1019.19 1019.66 1020.14 1020.61 1021.08 1021.55 1022.00 1022.43 1022.83 1023.17 1023.46 1023.67 1023.82 1023.90 1023.93 1023.92 1023.88 1023.84 1023.82 1023.83 1023.87 1023.96 1024.08 1024.22 1024.38 1024.54 1024.67 1024.78
1012.00 1012.01 1012.13 1012.35 1012.67 1013.08 1013.57 1014.11 1014.70 1015.31 1015.92 1016.52 1017.09 1017.63 1018.15 1018.64 1019.11 1019.56 1020.02 1020.47 1020.92 1021.37 1021.81 1022.23 1022.61 1022.95 1023.22 1023.43 1023.57 1023.64 1023.65 1023.63 1023.58 1023.53 1023.49 1023.48 1023.51 1023.57 1023.68 1023.81 1023.95 1024.09 1024.22 1024.32
1012.02 1012.04 1012.16 1012.37 1012.69 1013.09 1013.57 1014.11 1014.68 1015.28 1015.88 1016.47 1017.03 1017.56 1018.06 1018.53 1018.98 1019.42 1019.85 1020.28 1020.71 1021.14 1021.56 1021.95 1022.32 1022.64 1022.89 1023.09 1023.21 1023.28 1023.28 1023.24 1023.19 1023.12 1023.07 1023.04 1023.06 1023.11 1023.20 1023.31 1023.44 1023.58 1023.70 1023.80
1012.12 1012.13 1012.22 1012.41 1012.70 1013.07 1013.52 1014.03 1014.59 1015.17 1015.76 1016.33 1016.88 1017.40 1017.89 1018.35 1018.79 1019.21 1019.62 1020.03 1020.43 1020.84 1021.23 1021.60 1021.95 1022.24 1022.49 1022.67 1022.78 1022.84 1022.84 1022.80 1022.73 1022.66 1022.60 1022.56 1022.56 1022.60 1022.67 1022.77 1022.90 1023.02 1023.14 1023.24
1012.24 1012.21 1012.26 1012.40 1012.63 1012.96 1013.36 1013.84 1014.36 1014.92 1015.49 1016.05 1016.59 1017.11 1017.59 1018.04 1018.47 1018.89 1019.28 1019.68 1020.06 1020.45 1020.82 1021.17 1021.50 1021.78 1022.01 1022.18 1022.29 1022.34 1022.34 1022.30 1022.23 1022.16 1022.10 1022.06 1022.05 1022.08 1022.14 1022.24 1022.35 1022.48 1022.60 1022.70
1012.29 1012.21 1012.19 1012.27 1012.44 1012.71 1013.06 1013.49 1013.98 1014.51 1015.05 1015.60 1016.14 1016.66 1017.14 1017.60 1018.03 1018.43 1018.82 1019.21 1019.58 1019.95 1020.30 1020.64 1020.95 1021.22 1021.45 1021.62 1021.73 1021.78 1021.79 1021.76 1021.70 1021.64 1021.58 1021.55 1021.54 1021.57 1021.63 1021.73 1021.84 1021.97 1022.09 1022.20
Thickness
5676 5681 5681 5681 5682 5684 5681 5680 5675 5679 5679 5679 5670 5659 5647 5634 5622 5612 5604 5598 5592 5586 5582 5578 5575 5572 5570 5568 5567 5566 5566 5565 5564 5564 5565 5566 5567 5568 5569 5571 5572 5573 5575 5577
5666 5676 5678 5676 5681 5682 5680 5680 5678 5677 5674 5671 5664 5652 5637 5625 5615 5606 5598 5592 5585 5579 5574 5570 5566 5564 5561 5559 5557 5557 5556 5555 5555 5555 5555 5556 5556 5557 5559 5560 5561 5562 5563 5565
5658 5670 5670 5667 5677 5678 5678 5680 5675 5668 5665 5659 5648 5638 5628 5618 5609 5601 5592 5584 5577 5570 5565 5561 5557 5555 5553 5550 5549 5548 5547 5546 5545 5545 5545 5545 5546 5546 5547 5548 5549 5551 5552 5553
5653 5655 5647 5668 5679 5677 5673 5671 5670 5664 5658 5650 5639 5629 5620 5611 5603 5593 5584 5576 5569 5562 5556 5552 5549 5546 5544 5542 5540 5540 5538 5537 5536 5536 5535 5535 5535 5535 5536 5537 5538 5540 5541 5541
5647 5648 5655 5665 5668 5668 5663 5658 5657 5652 5645 5636 5626 5616 5607 5602 5595 5586 5577 5569 5561 5555 5549 5544 5540 5538 5536 5534 5532 5531 5529 5528 5527 5526 5526 5526 5526 5526 5527 5528 5529 5531 5531 5531
5643 5638 5641 5649 5659 5665 5658 5646 5646 5643 5634 5626 5621 5617 5606 5594 5585 5576 5568 5560 5552 5546 5541 5536 5532 5530 5529 5526 5524 5522 5521 5519 5518 5518 5518 5518 5518 5518 5519 5520 5521 5523 5522 5523
5637 5638 5646 5645 5655 5660 5642 5632 5637 5636 5630 5623 5621 5617 5603 5587 5577 5567 5559 5550 5544 5539 5534 5529 5525 5523 5521 5519 5516 5514 5513 5511 5511 5511 5510 5511 5510 5511 5512 5513 5514 5515 5515 5515
5634 5632 5631 5638 5645 5637 5630 5634 5633 5630 5624 5617 5610 5601 5589 5578 5568 5558 5550 5542 5537 5532 5527 5522 5518 5516 5514 5512 5509 5508 5506 5505 5504 5505 5506 5505 5505 5505 5506 5508 5508 5509 5510 5510
5628 5627 5629 5631 5629 5629 5629 5628 5626 5623 5617 5609 5600 5589 5580 5570 5560 5551 5544 5537 5531 5527 5521 5517 5513 5511 5509 5505 5504 5503 5501 5500 5499 5500 5499 5500 5500 5501 5502 5503 5506 5506 5506 5507
5624 5629 5628 5626 5626 5626 5625 5623 5621 5617 5611 5604 5593 5582 5572 5563 5553 5545 5537 5531 5527 5522 5517 5512 5509 5507 5504 5502 5500 5499 5497 5496 5495 5495 5496 5496 5498 5499 5500 5500 5501 5503 5503 5503
5619 5622 5623 5622 5620 5620 5619 5617 5614 5610 5605 5597 5587 5577 5567 5558 5549 5541 5534 5527 5522 5517 5513 5509 5505 5502 5500 5498 5497 5495 5494 5493 5493 5492 5493 5493 5492 5490 5493 5491 5492 5495 5497 5499
5614 5615 5615 5614 5615 5615 5613 5611 5608 5603 5596 5590 5582 5572 5563 5554 5545 5538 5530 5524 5518 5514 5510 5506 5503 5500 5498 5496 5494 5493 5492 5492 5492 5492 5491 5492 5491 5487 5482 5484 5484 5485 5486 5489
5612 5614 5613 5612 5613 5612 5610 5608 5604 5598 5591 5584 5576 5568 5560 5550 5542 5535 5528 5521 5516 5512 5508 5504 5501 5499 5497 5495 5494 5492 5491 5491 5492 5492 5491 5492 5491 5490 5488 5482 5480 5481 5482 5483
5612 5612 5611 5611 5610 5609 5607 5604 5600 5593 5587 5580 5572 5564 5556 5548 5540 5533 5526 5521 5516 5511 5507 5504 5501 5499 5497 5495 5493 5492 5492 5490 5491 5491 5492 5492 5493 5493 5493 5492 5490 5486 5482 5481
5613 5614 5612 5611 5608 5606 5604 5600 5595 5588 5582 5575 5568 5561 5554 5546 5539 5533 5526 5521 5516 5511 5507 5505 5502 5499 5497 5496 5494 5493 5494 5493 5493 5493 5494 5494 5494 5495 5495 5494 5493 5492 5489 5485
5615 5614 5613 5610 5607 5605 5602 5598 5593 5586 5580 5573 5566 5559 5553 5546 5539 5533 5527 5522 5516 5513 5509 5506 5503 5501 5499 5497 5496 5494 5493 5489 5492 5494 5495 5495 5496 5496 5496 5496 5495 5495 5494 5494
5615 5614 5613 5611 5609 5607 5603 5599 5594 5587 5580 5573 5566 5559 5553 5546 5539 5533 5528 5524 5519 5515 5511 5508 5506 5504 5502 5500 5499 5499 5497 5493 5490 5496 5497 5498 5498 5498 5498 5499 5499 5498 5498 5495
5622 5621 5619 5616 5614 5610 5605 5600 5595 5588 5581 5574 5567 5560 5554 5548 5542 5536 5532 5526 5522 5517 5514 5512 5509 5508 5506 5504 5503 5503 5502 5500 5500 5501 5500 5500 5500 5501 5501 5502 5502 5502 5501 5499
5626 5625 5623 5620 5617 5613 5608 5602 5596 5589 5582 5576 5569 5562 5557 5551 5546 5540 5535 5530 5526 5522 5518 5515 5510 5511 5509 5507 5506 5506 5507 5506 5505 5504 5504 5499 5503 5505 5506 5506 5507 5507 5507 5506
5628 5627 5625 5622 5619 5615 5610 5604 5598 5590 5584 5578 5571 5565 5559 5554 5549 5543 5538 5535 5532 5530 5524 5520 5516 5515 5514 5512 5509 5513 5512 5511 5511 5510 5509 5509 5510 5510 5511 5511 5512 5511 5511 5512
5628 5627 5626 5624 5620 5617 5612 5606 5600 5593 5586 5581 5575 5569 5563 5558 5553 5548 5543 5540 5536 5533 5529 5522 5523 5521 5520 5518 5513 5519 5518 5517 5517 5516 5516 5517 5517 5517 5517 5517 5517 5517 5517 5517
5627 5627 5626 5624 5621 5617 5613 5608 5603 5597 5590 5585 5580 5574 5568 5562 5558 5554 5551 5548 5543 5536 5535 5532 5531 5528 5526 5522 5525 5527 5526 5525 5524 5524 5523 5523 5523 5523 5523 5523 5523 5523 5524 5523
5627 5626 5625 5623 5621 5617 5613 5610 5606 5601 5595 5590 5586 5580 5575 5570 5567 5562 5557 5554 5550 5541 5542 5542 5537 5531 5528 5528 5533 5534 5534 5532 5532 5531 5531 5531 5531 5530 5530 5530 5530 5530 5530 5530
5624 5625 5624 5624 5622 5617 5614 5612 5608 5604 5600 5596 5591 5586 5581 5577 5573 5571 5567 5558 5554 5547 5550 5545 5538 5535 5531 5539 5541 5541 5541 5539 5540 5540 5540 5539 5539 5539 5539 5538 5537 5537 5537 5536
5623 5624 5624 5622 5620 5619 5616 5614 5610 5606 5603 5601 5597 5592 5588 5585 5582 5578 5574 5567 5559 5553 5555 5548 5543 5540 5541 5548 5549 5549 5549 5548 5549 5548 5547 5546 5546 5547 5546 5545 5545 5544 5544 5544
5621 5622 5623 5623 5624 5623 5622 5619 5616 5613 5610 5606 5603 5599 5595 5592 5588 5585 5579 5574 5569 5562 5564 5560 5554 5548 5553 5556 5557 5556 5556 5555 5552 5551 5553 5553 5553 5554 5553 5553 5552 5552 5551 5550
5620 5622 5621 5623 5624 5625 5625 5624 5621 5619 5617 5613 5610 5606 5602 5599 5595 5591 5587 5583 5578 5573 5573 5572 5569 5565 5565 5566 5566 5564 5563 5562 5562 5561 5560 5560 5560 5560 5560 5559 5559 5558 5557 5557